Owatonna, Minnesota, United States (55060)
Lat: 44.08N, Lon: 93.23W
Wx Zone: MNZ085
Local Info
Past Weather Observations for Today

NOTE: This archive is for the closest National Weather Service station to Owatonna. Information may differ from the station used for current weather conditions.

Click here for Long-term Archive

Time Weather Temperature Dewpoint Humidity Pressure Winds Precip Visibility
20:35
Overcast
5°F / -15°C -6°F / -21°C 60% 30.27 in
(1025 mb)
SE 9.2 mph
(SE 15 kph)
- 10SM
20:15
Mostly Cloudy
5°F / -15°C -4°F / -20°C 66% 30.3 in
(1026 mb)
SSE 8.1 mph
(SSE 13 kph)
- 10SM
19:55
Partly Cloudy
3°F / -16°C -4°F / -20°C 72% 30.3 in
(1026 mb)
SE 9.2 mph
(SE 15 kph)
- 10SM
19:35
Partly Cloudy
3°F / -16°C -6°F / -21°C 66% 30.33 in
(1027 mb)
SE 6.9 mph
(SE 11 kph)
- 10SM
19:15
Partly Cloudy
3°F / -16°C -6°F / -21°C 66% 30.33 in
(1027 mb)
SE 5.8 mph
(SE 9 kph)
- 10SM
18:55
Partly Cloudy
3°F / -16°C -4°F / -20°C 72% 30.33 in
(1027 mb)
SE 6.9 mph
(SE 11 kph)
- 10SM
18:35
Clear
1°F / -17°C -4°F / -20°C 78% 30.33 in
(1027 mb)
SSE 4.6 mph
(SSE 7 kph)
- 10SM
18:15
Partly Cloudy
1°F / -17°C -6°F / -21°C 71% 30.36 in
(1028 mb)
S 3.5 mph
(S 6 kph)
- 10SM
17:55
Partly Cloudy
°F / -18°C -6°F / -21°C 78% 30.36 in
(1028 mb)
S 3.5 mph
(S 6 kph)
- 10SM
17:35
Partly Cloudy
-2°F / -19°C -8°F / -22°C 77% 30.36 in
(1028 mb)
Calm - 10SM
17:15
Clear
-6°F / -21°C -9°F / -23°C 84% 30.39 in
(1029 mb)
S 4.6 mph
(S 7 kph)
- 10SM
16:55
Clear
-8°F / -22°C -13°F / -25°C 77% 30.39 in
(1029 mb)
S 3.5 mph
(S 6 kph)
- 10SM
16:35
Clear
-2°F / -19°C -9°F / -23°C 71% 30.39 in
(1029 mb)
Calm - 10SM
16:15
Clear
°F / -18°C -8°F / -22°C 71% 30.39 in
(1029 mb)
Calm - 10SM
15:55
Clear
-2°F / -19°C -9°F / -23°C 71% 30.42 in
(1030 mb)
SSE 4.6 mph
(SSE 7 kph)
- 10SM
15:35
Clear
-2°F / -19°C -9°F / -23°C 71% 30.42 in
(1030 mb)
SW 6.9 mph
(SW 11 kph)
- 10SM
15:15
Clear
-2°F / -19°C -9°F / -23°C 71% 30.42 in
(1030 mb)
SW 3.5 mph
(SW 6 kph)
- 10SM
14:55
Clear
°F / -18°C -8°F / -22°C 71% 30.42 in
(1030 mb)
SW 3.5 mph
(SW 6 kph)
- 10SM
14:35
Clear
1°F / -17°C -6°F / -21°C 71% 30.42 in
(1030 mb)
Calm - 10SM
14:15
Clear
1°F / -17°C -6°F / -21°C 71% 30.42 in
(1030 mb)
SSW 3.5 mph
(SSW 6 kph)
- 10SM
13:55
Clear
1°F / -17°C -6°F / -21°C 71% 30.45 in
(1031 mb)
Calm - 10SM
13:35
Clear
1°F / -17°C -6°F / -21°C 71% 30.45 in
(1031 mb)
SSW 3.5 mph
(SSW 6 kph)
- 10SM
13:15
Clear
°F / -18°C -6°F / -21°C 78% 30.45 in
(1031 mb)
Calm - 10SM
12:55
Clear
°F / -18°C -6°F / -21°C 78% 30.45 in
(1031 mb)
Calm - 10SM
12:35
Clear
°F / -18°C -6°F / -21°C 78% 30.45 in
(1031 mb)
Calm - 10SM
12:15
Clear
°F / -18°C -6°F / -21°C 78% 30.45 in
(1031 mb)
Calm - 10SM
11:55
Clear
°F / -18°C -6°F / -21°C 78% 30.48 in
(1032 mb)
Calm - 10SM
11:35
Clear
-2°F / -19°C -8°F / -22°C 77% 30.48 in
(1032 mb)
SSW 3.5 mph
(SSW 6 kph)
- 10SM
11:15
Clear
-4°F / -20°C -9°F / -23°C 77% 30.48 in
(1032 mb)
Calm - 10SM
10:55
Clear
-4°F / -20°C -9°F / -23°C 77% 30.51 in
(1033 mb)
Calm - 10SM
10:35
Clear
-6°F / -21°C -9°F / -23°C 84% 30.51 in
(1033 mb)
Calm - 10SM
10:15
Clear
-6°F / -21°C -11°F / -24°C 77% 30.51 in
(1033 mb)
Calm - 10SM
09:55
Clear
-8°F / -22°C -13°F / -25°C 77% 30.51 in
(1033 mb)
Calm - 10SM
09:35
Clear
-8°F / -22°C -15°F / -26°C 70% 30.51 in
(1033 mb)
NW 5.8 mph
(NW 9 kph)
- 10SM
09:15
Clear
-9°F / -23°C -15°F / -26°C 77% 30.51 in
(1033 mb)
NW 3.5 mph
(NW 6 kph)
- 10SM
08:55
Clear
-9°F / -23°C -17°F / -27°C 70% 30.51 in
(1033 mb)
NW 3.5 mph
(NW 6 kph)
- 10SM
08:35
Clear
-11°F / -24°C -17°F / -27°C 76% 30.48 in
(1032 mb)
Calm - 10SM
08:15
Clear
-15°F / -26°C -20°F / -29°C 76% 30.48 in
(1032 mb)
Calm - 10SM
07:55
Clear
-17°F / -27°C -22°F / -30°C 76% 30.48 in
(1032 mb)
W 3.5 mph
(W 6 kph)
- 10SM
07:35
Clear
-15°F / -26°C -20°F / -29°C 76% 30.45 in
(1031 mb)
WNW 5.8 mph
(WNW 9 kph)
- 10SM
07:15
Clear
-9°F / -23°C -15°F / -26°C 77% 30.48 in
(1032 mb)
W 4.6 mph
(W 7 kph)
- 10SM
06:55
Clear
-11°F / -24°C -17°F / -27°C 76% 30.48 in
(1032 mb)
SSW 4.6 mph
(SSW 7 kph)
- 10SM
06:35
Clear
-15°F / -26°C -20°F / -29°C 76% 30.45 in
(1031 mb)
Calm - 10SM
06:15
Clear
-11°F / -24°C -17°F / -27°C 76% 30.45 in
(1031 mb)
Calm - 10SM
05:55
Clear
Hazy
-11°F / -24°C -17°F / -27°C 76% 30.45 in
(1031 mb)
Calm - 4SM
05:35
Clear
-9°F / -23°C -15°F / -26°C 77% 30.45 in
(1031 mb)
WNW 3.5 mph
(WNW 6 kph)
- 10SM
05:15
Clear
-6°F / -21°C -9°F / -23°C 84% 30.45 in
(1031 mb)
WNW 8.1 mph
(WNW 13 kph)
- 10SM
04:55
Clear
-6°F / -21°C -11°F / -24°C 77% 30.45 in
(1031 mb)
WNW 8.1 mph
(WNW 13 kph)
- 10SM
04:35
Clear
-4°F / -20°C -9°F / -23°C 77% 30.42 in
(1030 mb)
WNW 8.1 mph
(WNW 13 kph)
- 10SM
04:15
Clear
-6°F / -21°C -11°F / -24°C 77% 30.42 in
(1030 mb)
NW 5.8 mph
(NW 9 kph)
- 10SM
03:55
Clear
-6°F / -21°C -11°F / -24°C 77% 30.42 in
(1030 mb)
WNW 6.9 mph
(WNW 11 kph)
- 10SM
03:35
Clear
-2°F / -19°C -9°F / -23°C 71% 30.42 in
(1030 mb)
NW 6.9 mph
(NW 11 kph)
- 10SM
03:15
Clear
-2°F / -19°C -9°F / -23°C 71% 30.42 in
(1030 mb)
WNW 6.9 mph
(WNW 11 kph)
- 10SM
02:55
Clear
°F / -18°C -8°F / -22°C 71% 30.42 in
(1030 mb)
WNW 8.1 mph
(WNW 13 kph)
- 10SM
02:35
Clear
1°F / -17°C -8°F / -22°C 65% 30.42 in
(1030 mb)
NW 6.9 mph
(NW 11 kph)
- 10SM
02:15
Clear
1°F / -17°C -6°F / -21°C 71% 30.39 in
(1029 mb)
NW 6.9 mph
(NW 11 kph)
- 10SM
01:55
Clear
1°F / -17°C -6°F / -21°C 71% 30.39 in
(1029 mb)
NW 5.8 mph
(NW 9 kph)
- 10SM
01:35
Partly Cloudy
7°F / -14°C -2°F / -19°C 66% 30.39 in
(1029 mb)
NW 6.9 mph
(NW 11 kph)
- 10SM
01:15
Mostly Cloudy
9°F / -13°C 1°F / -17°C 72% 30.39 in
(1029 mb)
NW 9.2 mph
(NW 15 kph)
- 10SM
00:55
Overcast
12°F / -11°C 3°F / -16°C 67% 30.39 in
(1029 mb)
NW 12.7 mph
(NW 20 kph)
- 10SM
00:35
Overcast
Light Snow
14°F / -10°C 7°F / -14°C 73% 30.36 in
(1028 mb)
NW 12.7 mph
(NW 20 kph)
- 10SM
00:15
Overcast
Light Snow
14°F / -10°C 9°F / -13°C 79% 30.36 in
(1028 mb)
NW 12.7 mph
(NW 20 kph)
- 10SM
Time Weather Temperature Dewpoint Humidity Pressure Winds Precip Visibility


Weather for websites

WeatherForYou.com, LLC is not responsible for any damages or problems caused by this service. Current weather conditions are obtained from the closest station including government and personal stations which may have varying degrees of accuracy. Weather forecasts are derived from the NOAA NDFD. Like all things, this site belongs to Jesus Christ... He just trusts me to maintain it. If you have any questions or comments email webmaster@weatherforyou.com

Copyright © 2014, WeatherForYou.com LLC. All rights reserved.